Location: �clusier
(49.9361°N, 2.7869°E)
Time: 05:07:57
(UTC+00:00)

Centaur D AC-29 - Pass Details

Date: 01 November 2021
Orbit: 562 x 36275 km, 26.9° (Epoch: 05 December)

Event Time Altitude Azimuth Distance (km) Brightness Sun altitude
Rises 03:15:24 0° 213° (SSW) 14,111 7.5 -32.8°
Reaches altitude 10° 03:27:05 10° 208° (SSW) 15,919 7.8 -31.0°
Maximum altitude 06:51:16 44° 223° (SW) 36,732 9.9 1.0°
Drops below altitude 10° 13:02:32 10° 175° (S) 6,276 7.4 22.5°
Sets 13:05:54 0° 165° (SSE) 6,242 6.9 22.3°
